#timestamp,LO_Frequency,Hit,StdDev 
1680894015.7,286047000.0,P
1680894035.5,286047001.0,N
1680894055.4,286047000.0,N
1680894075.2,286047000.3,N
1680894095.0,286046998.6,N
1680894095.9,286046998.6,N
1680894115.8,286046999.3,N
1680894135.6,286046999.0,N
1680894155.5,286046998.2,N
1680894175.3,286046998.1,N
1680894195.1,286047000.7,N
1680894215.9,286047000.7,N
1680894235.7,286047000.6,N
1680894255.5,286047001.1,N
1680894275.4,286047002.7,N
1680894295.2,286047002.8,N
1680894315.1,286047002.2,N
1680894316.0,286047002.2,N
1680894335.8,286047004.1,N
1680894355.6,286047001.5,N
1680894375.5,286047000.1,N
1680894395.3,286047000.3,N
1680894415.1,286047001.2,N
1680894435.9,286047000.9,N
1680894455.7,286047000.9,N
1680894475.6,286046998.5,N
1680894495.4,286046998.4,N
1680894515.2,286046998.1,N
1680894535.1,286047001.0,N
1680894536.0,286047001.0,N
1680894555.8,286046998.6,N
1680894575.6,286046998.2,N
1680894595.5,286047000.4,N
1680894615.3,286046998.1,N
1680894635.2,286047001.0,N
1680894655.9,286047000.9,N
1680894675.7,286047000.1,N
1680894695.6,286047002.7,N
1680894715.4,286047000.1,N
1680894735.2,286047002.4,N
1680894755.1,286047002.8,N
1680894756.0,286047002.8,N
1680894775.8,286047002.3,N
1680894795.7,286047002.5,N
1680894815.5,286047001.9,N
1680894835.3,286047002.0,N
1680894855.2,286047000.4,N
1680894875.9,286047002.4,N
1680894895.7,286047002.7,N
1680894915.6,286047000.1,N
1680894935.4,286047001.2,N
1680894955.3,286046999.8,N
1680894975.1,286047000.3,N
1680894976.0,286047000.3,N
1680894995.8,286047000.2,N
1680895015.7,286046999.7,N
1680895035.5,286046999.8,N
1680895055.3,286047002.3,N
1680895075.2,286046998.1,N
1680895095.0,286046998.6,N
1680895095.9,286046998.6,N
1680895115.8,286047000.5,N
1680895135.6,286047000.4,N
1680895155.4,286047000.3,N
1680895175.3,286046999.9,N
1680895195.1,286046999.9,N
1680895215.9,286047002.2,N
1680895235.7,286047002.7,N
1680895255.5,286047000.0,N
1680895275.4,286047000.3,N
1680895295.2,286047000.1,N
1680895315.0,286047000.2,N
1680895316.0,286047000.2,N
1680895335.8,286047000.3,N
1680895355.6,286047000.3,N
1680895375.5,286047000.6,N
1680895395.3,286047001.1,N
1680895415.1,286047000.2,N
1680895435.9,286047000.2,N
1680895455.7,286047002.7,N
1680895475.6,286047002.4,N
1680895495.4,286047002.6,N
1680895515.2,286047002.5,N
1680895535.1,286047002.4,N
1680895536.0,286047002.4,N
1680895555.8,286047002.6,N
1680895575.6,286046999.9,N
1680895595.5,286047000.3,N
1680895615.3,286046999.7,N
1680895635.2,286047000.7,N
1680895655.9,286046999.8,N
1680895675.7,286046998.6,N
1680895695.6,286046998.3,N
1680895715.4,286046998.7,N
1680895735.2,286046999.5,N
1680895755.1,286047001.1,N
1680895756.0,286047001.1,N
1680895775.8,286046998.4,N
1680895795.7,286046999.5,N
1680895815.5,286046999.3,N
1680895835.3,286046998.5,N
1680895855.2,286047000.7,N
1680895875.0,286047000.6,N
1680895875.9,286047000.6,N
1680895895.7,286047002.6,N
1680895915.6,286047002.4,N
1680895935.4,286047000.0,N
1680895955.3,286047001.0,N
1680895975.1,286047000.6,N
1680895976.0,286047000.6,N
1680895995.8,286047011.9,Y
1680896015.7,286047002.4,P
1680896035.5,286047002.3,N
1680896055.3,286047002.6,P
1680896075.2,286047002.7,Y
1680896095.0,286047001.0,P
1680896095.9,286047001.0,N
1680896115.8,286047000.3,N
1680896135.6,286046998.3,N
1680896155.4,286046998.3,N
1680896175.3,286046998.7,N
1680896195.1,286046999.4,N
1680896215.9,286046999.3,N
1680896235.7,286046998.9,N
1680896255.5,286046998.7,N
1680896275.4,286046998.7,N
1680896295.2,286046998.4,N
1680896315.0,286046999.0,N
1680896315.9,286046999.0,N
1680896335.8,286046998.7,N
1680896355.6,286046998.3,N
1680896375.5,286046998.4,N
1680896395.3,286046999.0,N
1680896415.1,286047000.4,N
1680896435.9,286047000.7,N
1680896455.7,286047000.8,N
1680896475.6,286046999.3,N
1680896495.4,286046999.2,N
1680896515.2,286046999.5,N
1680896535.1,286046998.4,N
1680896536.0,286046998.4,N
1680896555.8,286047000.0,N
1680896575.7,286047002.7,N
1680896595.5,286047002.5,N
1680896615.3,286047000.3,N
1680896635.2,286047000.0,N
1680896655.0,286046998.1,N
1680896655.9,286046998.1,N
1680896675.8,286047004.2,Y
1680896695.6,286047004.1,P
1680896715.4,286047015.0,P
1680896735.3,286047014.4,N
1680896755.1,286047011.4,N
1680896775.9,286047008.5,N
1680896795.7,286047005.2,N
1680896815.5,286047003.2,N
1680896835.4,286047003.5,N
1680896855.2,286047002.3,N
1680896875.1,286047002.3,N
1680896876.0,286047002.3,N
1680896895.8,286046999.9,N
1680896915.6,286047001.1,N
1680896935.5,286046998.2,N
1680896955.3,286046998.3,N
1680896975.1,286046998.9,N
1680896995.9,286046999.1,N
1680897015.7,286046996.7,N
1680897035.6,286046997.4,N
1680897055.4,286046995.0,N
1680897075.2,286046995.6,N
1680897095.1,286046996.2,N
1680897096.0,286046996.2,N
1680897115.8,286046993.5,N
1680897135.6,286046994.3,N
1680897155.5,286046994.7,N
1680897175.3,286046992.9,N
1680897195.2,286046992.2,N
1680897215.9,286046992.4,N
1680897235.7,286046992.6,N
1680897255.6,286046993.0,N
1680897275.4,286046990.2,N
1680897295.2,286046993.0,N
1680897315.1,286046992.4,N
1680897316.0,286046992.4,N
1680897335.8,286046993.1,N
1680897355.7,286046992.1,N
1680897375.5,286046991.8,N
1680897395.3,286046992.1,N
1680897415.2,286046991.8,N
1680897435.0,286046992.1,N
1680897435.9,286046992.1,N
1680897455.8,286046994.4,N
1680897475.6,286046993.7,N
1680897495.4,286046992.3,Y
1680897515.3,286047000.8,P
1680897535.1,286047000.6,N
1680897555.8,286046999.9,N
1680897575.7,286047002.7,N
1680897595.5,286047004.4,N
